Location: Ardick
(31.4613°N, 81.4334°W)
Time: 11:58:32
(UTC+00:00)

Hubble Space Telescope - Visible Passes

Search period start: 20 September 2021 00:00
Search period end: 30 September 2021 00:00
Orbit: 535 x 539 km, 28.5° (Epoch: 19 September)

Date Brightness Start Highest point End Pass type
(mag) Time Alt. Az. Time Alt. Az. Time Alt. Az.
20 Sep 2.9 01:19:32 10° WSW 01:21:56 17° SSW 01:21:56 17° SSW visible
21 Sep 3.1 01:09:00 10° WSW 01:11:09 14° SSW 01:11:38 14° SSW visible
22 Sep 3.4 00:58:59 10° SW 01:00:01 11° SSW 01:01:03 10° SSW visible
